Sally Plumb Plumb

Veteran Poet - 1,895 Points (23 9 1940 / Haverhill Suffolk England)

Stats

» Click to list general statistics » OR, select a date :

General Statistics

Visitors of the poet

Number of visitors of the poet’s mainpage in PoemHunter.Com

Attention : Numbers in this table does not indicate the total hits of poems of the poet, but indicates the hits of the poet’s main page.

Date Hits
09/02/2015 Wednesday 290
68%
09/01/2015 Tuesday 295
69%
08/31/2015 Monday 323
76%
08/30/2015 Sunday 259
61%
08/29/2015 Saturday 241
57%
08/28/2015 Friday 422
100%
08/27/2015 Thursday 299
70%
08/26/2015 Wednesday 228
54%
08/25/2015 Tuesday 222
52%
08/24/2015 Monday 171
40%
08/23/2015 Sunday 208
49%
08/22/2015 Saturday 196
46%
08/21/2015 Friday 318
75%
08/20/2015 Thursday 212
50%
08/19/2015 Wednesday 202
47%
08/18/2015 Tuesday 273
64%
08/17/2015 Monday 224
53%
08/16/2015 Sunday 128
30%
08/15/2015 Saturday 111
26%
08/14/2015 Friday 175
41%

Reader rating & num.of MyPoemList’s

Click the captions of columns to change the order.

# Poem Title Submit Date Reader Rating Num.of MyPoemList’s
Rating Num.R.
1 Vanity 08/25/2015 -- 0 0
2 Your Call 08/25/2015 -- 0 0
3 United 06/27/2015 -- 0 0
4 Sacrifice 06/27/2015 -- 0 0
5 Prayer For Night 06/27/2015 -- 0 0
6 Rocker Song 03/31/2015 -- 0 0
7 Nightwatch 11/04/2014 10.0 1 0
8 A Boy And A Frog (Kids Stuff) 10/23/2014 -- 0 1
9 The Slow Walk 08/09/2014 10.0 1 0
10 After 08/08/2014 -- 0 0
11 The Contest 06/05/2014 -- 0 0
12 Barn Owl 05/09/2014 10.0 1 0
13 Listen 05/08/2014 -- 0 0
14 Harmony 05/07/2014 10.0 1 0
15 Conflict 02/24/2014 10.0 2 0
16 Confession 02/11/2014 -- 0 0
17 Night Bird 02/07/2014 -- 0 0
18 Ebb Tide 02/03/2014 10.0 1 0
19 Many Hollows 01/03/2014 7.5 2 0
20 Night Ways 01/02/2014 -- 0 0
21 The Lion 01/01/2014 7.0 1 0
22 The Appointment 12/24/2013 -- 0 0
23 Flippancy 12/22/2013 9.0 2 0
24 Hit 12/21/2013 10.0 1 0
25 Negativity 11/11/2013 10.0 2 0
26 Too Old 10/28/2013 10.0 3 0
27 Three Phases 09/28/2013 10.0 1 0
28 Frightened Fourteen (Kids Stuff) 09/27/2013 10.0 1 0
29 Killing Time 09/23/2013 8.5 2 0
30 Rumour 08/30/2013 -- 0 0
31 Separation 08/14/2013 10.0 3 2
32 Shades Of Love 08/01/2013 10.0 4 1
33 Getting Fat 06/28/2013 9.7 3 0
34 Infinity 05/08/2013 9.9 9 1
35 Twilight 03/30/2013 10.0 4 2
36 Mind Healer 03/19/2013 9.5 2 0
37 Mute 03/18/2013 9.5 4 0
38 Down The Drain 03/07/2013 9.7 3 0
39 Monday Morning 03/06/2013 10.0 1 0
40 Imagination 03/05/2013 10.0 1 0
41 Earth Fire 12/08/2012 10.0 1 0
42 Nightmare 10/20/2012 10.0 2 0
43 Workday Weekday 10/17/2012 -- 0 0
44 Remorse 10/07/2012 -- 0 0
45 High Hopes 10/06/2012 -- 0 0
46 Lost For Words 10/04/2012 10.0 1 0
47 Confused? 08/15/2012 -- 0 0
48 Breakdown 08/14/2012 10.0 4 0
49 Departure 08/07/2012 10.0 2 0
50 Seagull 07/11/2012 10.0 4 0
51 Late Friday Night 06/29/2012 9.7 3 0
52 Rig Divers North Sea 06/28/2012 -- 0 0
53 Gossips 06/27/2012 10.0 3 0
54 Another Shade Of Blue 06/27/2012 10.0 5 1
55 Score 04/22/2012 10.0 2 0
56 Request 04/21/2012 10.0 1 0
57 Tough Love 04/18/2012 10.0 3 0
58 Stairway 03/23/2012 10.0 1 0
59 Wind And Rain 02/20/2012 10.0 3 0
60 Dawn 02/09/2012 -- 0 0
61 Defeat 02/08/2012 10.0 2 0
62 Jack Spratt 12/27/2011 9.7 3 0
63 Beyond 12/06/2011 -- 0 0
64 Undressed 12/05/2011 -- 0 0
65 Letter 11/28/2011 10.0 1 0
66 Fantasia 11/24/2011 -- 0 0
67 Betrayel 11/22/2011 -- 0 0
68 Grandmama 11/21/2011 -- 0 0
69 Crimes 11/01/2011 9.7 3 0
70 Swing High Swing Low 10/07/2011 10.0 1 1
71 Destiny 10/05/2011 10.0 1 0
72 Silken Thread 10/02/2011 -- 0 0
73 Seeing You 10/01/2011 10.0 1 0
74 Fractions 09/30/2011 -- 0 0
75 Question 09/28/2011 -- 0 0
76 Birth 09/09/2011 -- 0 0
77 The Voice Of Seduction 09/07/2011 -- 0 0
78 Second Depression 08/10/2011 -- 0 0
79 Crumbs 08/06/2011 10.0 1 0
80 Night Sky 07/08/2011 9.0 2 0
81 The Social Divide 07/04/2011 -- 0 0
82 Retort 07/01/2011 10.0 1 0
83 Mr Jones 06/15/2011 -- 0 0
84 Bitter Beginning 06/13/2011 -- 0 0
85 Imagine 06/03/2011 -- 0 0
86 Gabriel 06/02/2011 -- 0 0
87 The Shift Worker 05/25/2011 8.0 1 0
88 Downtown 05/20/2011 -- 0 0
89 Skin 05/19/2011 -- 0 0
90 Natural Tempo 05/18/2011 10.0 2 0
91 Magical Night 04/14/2011 10.0 1 0
92 Conversation 04/12/2011 -- 0 0
93 Aunt Summer Rose (Kids Stuff) 04/08/2011 -- 0 0
94 Eden's Gate 04/07/2011 -- 0 0
95 First Season 03/29/2011 -- 0 0
96 November 03/09/2011 10.0 1 0
97 Chores 03/08/2011 10.0 1 0
98 Torment 03/05/2011 -- 0 0
99 Over Time 02/19/2011 -- 0 0
100 The Thaw 02/18/2011 10.0 1 0
101 Jukes Song 02/14/2011 -- 0 0
102 Thinks Party 02/12/2011 10.0 2 1
103 Predator 02/11/2011 -- 0 0
104 Headless 02/08/2011 6.0 1 0
105 Annie May 01/06/2011 10.0 1 0
106 Look 01/05/2011 -- 0 0
107 Slough Of Despond 12/11/2010 10.0 2 0
108 The Dryad 12/04/2010 -- 0 0
109 Christmas Day 12/03/2010 10.0 1 0
110 Snake Skin 12/01/2010 10.0 1 0
111 Opposition 11/12/2010 -- 0 0
112 Natures Way 10/13/2010 -- 0 0
113 Bad Rivers 10/12/2010 10.0 3 0
114 Calling Wind 10/01/2010 9.8 4 0
115 Decision 09/23/2010 10.0 1 0
116 Passing Tedious Time 08/26/2010 -- 0 0
117 Zero 08/10/2010 10.0 3 0
118 1957 08/04/2010 9.5 4 0
119 Singing Lesson 08/02/2010 -- 0 0
120 Evening At Home 06/29/2010 10.0 2 0
121 Not Tonight 06/28/2010 -- 0 0
122 6 P.M. 06/08/2010 9.5 2 0
123 Orange 06/01/2010 10.0 1 0
124 Yellow Iris 05/23/2010 10.0 1 0
125 Shower 05/22/2010 -- 0 0
126 Reunion 05/17/2010 -- 0 0
127 Shadow 05/16/2010 10.0 1 0
128 Explanation 05/15/2010 -- 0 0
129 Spirit 05/14/2010 10.0 2 1
130 The Haunted 05/13/2010 10.0 1 0
131 Live Music 05/13/2010 10.0 1 0
132 Wren 03/13/2010 10.0 1 0
133 Spring Weather 03/12/2010 -- 0 0
134 Breathing 02/09/2010 10.0 3 1
135 Unfamiliar Fantasy 01/22/2010 10.0 1 0
136 Climate Change 12/26/2009 10.0 1 0
137 Missing Person 12/25/2009 -- 0 0
138 Languor 12/24/2009 10.0 1 0
139 Side Affects 12/23/2009 10.0 2 0
140 Unspeakable 12/22/2009 10.0 1 0
141 Summer 12/14/2009 10.0 1 0
142 High 12/12/2009 -- 0 0
143 Speechless 12/05/2009 10.0 2 1
144 Insight 11/14/2009 10.0 3 0
145 The Haunted Sea (Kids Stuff) 11/05/2009 10.0 2 0
146 Flight 10/15/2009 10.0 3 0
147 Ripple 10/09/2009 10.0 1 0
148 Perfect Silence 10/07/2009 8.9 7 1
149 Starters 10/02/2009 10.0 1 0
150 Pastel 09/24/2009 10.0 3 0
151 Sleep 09/18/2009 10.0 4 0
152 Spirit Wings 09/07/2009 10.0 1 0
153 Annoyance 09/05/2009 10.0 3 0
154 Lyric 09/02/2009 10.0 3 0
155 Weeping Willow 08/29/2009 9.5 2 3
156 Ritual 08/12/2009 10.0 1 0
157 Enrichment 08/10/2009 10.0 1 0
158 Recruit 07/30/2009 10.0 1 0
159 Bebe 07/29/2009 10.0 3 1
160 Music 07/28/2009 10.0 2 0
161 Saturday Night And Sunday Morning 07/22/2009 -- 0 1
162 The Red Indian 07/10/2009 10.0 1 0
163 Be Kind Be Sweet 07/08/2009 9.5 2 1
164 Late Afternoon 07/07/2009 10.0 1 0
165 Left Undead 07/06/2009 -- 0 0
166 Cloud 07/02/2009 10.0 3 2
167 Foxglove 06/28/2009 10.0 1 0
168 The Chain 06/17/2009 -- 0 0
169 Song Of A Dying Infant 06/03/2009 10.0 1 0
170 Confrontation (Darfur) 05/29/2009 10.0 5 0
171 Late Summer 05/18/2009 -- 0 1
172 A Question Of God 05/17/2009 9.6 11 1
173 Death Of A Woman 05/12/2009 10.0 3 0
174 Angels 05/09/2009 10.0 6 1
175 A Dark Fire 05/08/2009 10.0 6 1
176 Fight 05/07/2009 10.0 2 0
177 We Are 05/06/2009 10.0 3 0
178 Shadow Street 05/05/2009 7.3 3 0
179 Rendezvous 05/04/2009 9.5 2 0
180 Lifting 05/03/2009 10.0 1 0
181 A Humorous Death 05/02/2009 10.0 10 3
182 Thought 05/01/2009 9.5 4 0
183 Leaving 04/30/2009 -- 0 0
184 The Queue 04/29/2009 10.0 1 0
185 Granpa 04/28/2009 10.0 1 0
186 Two Confused 04/27/2009 10.0 1 1
187 Breakfast 04/26/2009 9.7 7 1
188 Happiness Is Sacred 04/25/2009 10.0 1 0
189 Crucible 04/24/2009 9.7 3 0
190 Valentine 04/23/2009 10.0 2 1
191 Hettie 04/06/2009 10.0 2 0
192 Six A.M. 04/04/2009 -- 0 0
193 Diary 04/01/2009 9.3 3 2
194 Possession 03/31/2009 10.0 1 1
195 Pretence 03/30/2009 10.0 1 1
196 Sundial 03/29/2009 7.5 4 0
197 Sleep My Love 03/28/2009 10.0 2 2
198 Reynard 03/27/2009 -- 0 0
199 Lucifer 03/26/2009 -- 0 0
200 Picture 03/25/2009 10.0 1 2
201 Dream On 03/24/2009 10.0 1 2
202 Something Plus 03/23/2009 -- 0 1
203 Love 03/22/2009 10.0 1 0
204 Curse 03/21/2009 -- 0 0
205 Solitude 03/20/2009 10.0 1 1
206 Anger 03/19/2009 10.0 2 2
207 Moon Song 03/18/2009 10.0 2 2
208 Winter 03/15/2009 9.8 5 1
209 Summer Shade 03/15/2009 9.0 2 1
210 Skylark 03/15/2009 10.0 1 0
211 Simplicity 03/14/2009 10.0 1 0
212 Snowdrops 03/14/2009 10.0 1 2
213 Upside Down 03/14/2009 10.0 2 0
214 The Native 03/14/2009 10.0 1 0
215 Search 03/14/2009 10.0 2 0
216 Surprise Suprise 03/14/2009 10.0 1 0
217 Changeover 03/14/2009 10.0 3 1
218 He Is 03/14/2009 10.0 3 0
219 Guide 03/14/2009 10.0 2 1
220 Vow 03/14/2009 10.0 3 0
221 Cats 03/14/2009 9.5 2 1
222 Love After Death 03/14/2009 10.0 1 1
223 The Juveniles 03/14/2009 10.0 2 0
224 Serenade 03/14/2009 10.0 1 0
225 Poppies 03/14/2009 10.0 2 0
226 May 03/14/2009 10.0 1 0
227 Village Tree 03/14/2009 9.5 2 0
228 Sunrise 03/14/2009 10.0 2 1
229 Sparrows 03/14/2009 10.0 3 0
230 Figment 03/14/2009 10.0 2 1
231 A Slow Smoke 03/14/2009 9.8 4 1
232 Time Past 03/14/2009 10.0 2 2
233 Good Night 03/14/2009 10.0 2 1
234 The Satyr 03/14/2009 10.0 1 0
235 Somewhere 03/14/2009 10.0 1 1
236 Formation 03/14/2009 -- 0 1
237 Wildflowers Live On 03/14/2009 10.0 4 2
238 Apple Tree 03/14/2009 10.0 7 2
239 Purer Than White 03/14/2009 10.0 2 0
240 Goodnight Baby Love 03/14/2009 10.0 1 1
241 Storm 03/14/2009 10.0 1 2
242 Headstones 03/14/2009 10.0 1 0
243 Underfoot 03/14/2009 10.0 1 0
244 Fantasy 03/14/2009 10.0 3 1
245 Smile 03/14/2009 10.0 2 2
246 Judas 03/14/2009 10.0 1 0
247 Domestic 03/14/2009 10.0 2 0
248 Ghost 03/14/2009 10.0 2 2
249 Rowley 03/14/2009 -- 0 0
250 Starless 03/14/2009 10.0 2 2
251 Reflection 03/14/2009 -- 0 2
252 Pretty 03/14/2009 9.0 2 1
[Hata Bildir]